Regional Weather Roundup
Issued by NWS

Home | Current Version | Previous Version | Text Only | Print | Product List | Glossary On
Versions: 1 2 3 4 5 6 7 8 9 10 11 12 13 14 15 16 17 18 19 20 21 22 23 24 25 26 27 28 29 30 31 32 33 34 35 36 37 38 39 40 41 42 43 44 45 46 47 48 49 50
000
ASUS43 KLMK 181210
RWRKY
KENTUCKY REGIONAL WEATHER ROUNDUP
NATIONAL WEATHER SERVICE LOUISVILLE KY
700 AM EST SAT FEB 18 2017

NOTE "FAIR" INDICATES FEW OR NO CLOUDS BELOW 12,000 FEET
WITH NO SIGNIFICANT WEATHER AND/OR OBSTRUCTIONS TO VISIBILITY.

KYZ001>023-026-027-061>063-070>075-181300-
WESTERN AND SOUTH CENTRAL KENTUCKY

CITY           SKY/WX    TMP DP  RH WIND       PRES   REMARKS
PADUCAH        CLOUDY    54  39  57 SW7       29.88R
HENDERSON      CLOUDY    52  36  54 S10       29.87R
OWENSBORO      LGT RAIN  50  39  66 S7        29.88R
HOPKINSVILLE   DRIZZLE   52  43  71 SE6       29.91R
BOWLING GREEN  CLOUDY    53  39  59 S9        29.92R
GLASGOW        RAIN      51  37  60 SW6       29.93R
$$

KYZ024-025-028>034-038-045-046-053-181300-
NORTH CENTRAL KENTUCKY

CITY           SKY/WX    TMP DP  RH WIND       PRES   REMARKS
LOUISVILLE/SDF CLOUDY    49  32  52 SE6       29.87R
LOUISVILLE/LOU CLOUDY    48  33  56 S6        29.88R
FORT KNOX      CLOUDY    48  35  60 S5        29.86R
$$

KYZ035>037-039>044-047>052-055>060-089>105-181300-
NORTHEAST KENTUCKY

CITY           SKY/WX    TMP DP  RH WIND       PRES   REMARKS
LEXINGTON      CLOUDY    46  32  58 S7        29.88S
COVINGTON      PTCLDY    45  31  58 S12       29.84R
FRANKFORT      CLOUDY    44  32  62 CALM      29.87S
$$

KYZ054-064>069-076>088-106>120-181300-
SOUTHEAST KENTUCKY

CITY           SKY/WX    TMP DP  RH WIND       PRES   REMARKS
JACKSON        CLOUDY    50  31  48 SW5       29.92F
LONDON         PTCLDY    44  33  65 SW3       29.93S
SOMERSET       CLOUDY    45  32  61 S3        29.94S
MIDDLESBORO    CLOUDY    36  34  92 CALM      29.98R
MONTICELLO     CLOUDY    46  38  73 NW9       29.95R
$$





USA.gov is the U.S. government's official web portal to all federal, state and local government web resources and services.